Stations météo

réclame
Mon MeteoGroup
A12-CPP, Pays-Bas (6205): Température de l'air & dewpoint: 17.11.2017 12:00:00 - 23.11.2017 12:00:00 (CET)A12-CPP, Pays-Bas (6205): Vitesse du vent & gusts: 17.11.2017 12:00:00 - 23.11.2017 12:00:00 (CET)A12-CPP, Pays-Bas (6205): Direction du vent: 17.11.2017 12:00:00 - 23.11.2017 12:00:00 (CET)A12-CPP, Pays-Bas (6205): reduced air pressure: 17.11.2017 12:00:00 - 23.11.2017 12:00:00 (CET)A12-CPP, Pays-Bas (6205): visibility: 17.11.2017 12:00:00 - 23.11.2017 12:00:00 (CET)
Date & Time tt [°C] td [°C] ff [km/h] ff [knt] fx [km/h] fx [knt] dd ppp [hPa] vv [km]
23.11.2017 12:00:00 9,0 3,0 72 39 - - WSW 987,0 10
23.11.2017 11:00:00 9,4 5,1 57 31 79 43 WSW 984,9 10
23.11.2017 10:00:00 11,4 9,9 67 36 - - SSW 982,0 7
23.11.2017 09:00:00 11,8 9,7 52 28 61 33 S 981,3 4,7
23.11.2017 08:00:00 11,6 9,5 67 36 76 41 SSW 981,5 9
23.11.2017 07:00:00 12,1 9,5 76 41 - - SSW 981,2 9
23.11.2017 06:00:00 12,4 9,3 76 41 90 49 S 980,7 6
23.11.2017 05:00:00 13,5 9,1 76 41 83 45 - 980,2 9
23.11.2017 04:00:00 12,8 9,2 74 40 - - S 981,2 8
23.11.2017 03:00:00 13,0 9,0 74 40 83 45 SSW 982,0 9
23.11.2017 02:00:00 13,0 8,6 76 41 86 47 SSW 982,9 9
23.11.2017 01:00:00 12,8 8,3 72 39 - - S 983,2 9
23.11.2017 00:00:00 12,8 8,1 68 37 83 45 S 984,3 8
22.11.2017 23:00:00 12,8 7,7 70 38 83 45 - 984,7 10
22.11.2017 22:00:00 12,6 8,3 70 38 - - S 985,8 9
22.11.2017 21:00:00 12,5 9,1 76 41 90 49 - 985,8 9
22.11.2017 20:00:00 12,3 9,1 70 38 79 43 SSW 986,9 9
22.11.2017 19:00:00 12,2 9,3 68 37 - - SSW 987,8 6
22.11.2017 18:00:00 12,0 9,7 63 34 76 41 SSW 988,2 2,5
22.11.2017 17:00:00 12,3 9,6 63 34 68 37 S 988,7 9
22.11.2017 16:00:00 12,0 9,7 61 33 - - SSW 989,5 9
22.11.2017 15:00:00 12,0 9,6 65 35 72 39 SSW 990,0 9
22.11.2017 14:00:00 11,9 9,6 63 34 72 39 SSW 991,1 9
22.11.2017 13:00:00 12,0 9,4 67 36 - - SSW 991,4 9
22.11.2017 12:00:00 12,0 9,5 65 35 68 37 SSW 991,9 10
22.11.2017 11:00:00 11,6 10,6 57 31 65 35 SSW 992,7 6
22.11.2017 10:00:00 11,8 10,7 55 30 - - SW 993,0 9
22.11.2017 09:00:00 11,6 10,5 59 32 61 33 SW 992,9 10
22.11.2017 08:00:00 11,5 10,5 52 28 58 31 SW 992,9 9
22.11.2017 07:00:00 11,6 10,4 59 32 - - SW 992,8 9
22.11.2017 06:00:00 11,5 10,3 57 31 61 33 SW 992,7 9
22.11.2017 05:00:00 11,6 10,3 61 33 61 33 SW 992,9 10
22.11.2017 04:00:00 11,4 10,2 59 32 - - SW 993,1 9
22.11.2017 03:00:00 11,5 10,2 59 32 61 33 SW 993,2 8
22.11.2017 02:00:00 11,3 10,0 57 31 58 31 SW 993,9 9
22.11.2017 01:00:00 11,1 10,0 59 32 - - SSW 994,7 10
22.11.2017 00:00:00 11,1 9,7 59 32 61 33 SSW 995,2 10
21.11.2017 23:00:00 10,9 9,4 52 28 50 27 SSW 996,1 10
21.11.2017 22:00:00 11,0 9,6 50 27 - - SSW 997,2 10
21.11.2017 21:00:00 10,9 10,2 42 23 43 23 SW 998,3 5
21.11.2017 20:00:00 10,9 10,8 34 18 40 21 SSW 999,1 2,4
21.11.2017 19:00:00 10,7 10,2 37 20 - - SSE 1000,4 4,6
21.11.2017 18:00:00 10,3 9,9 37 20 36 19 SSE 1001,4 5
21.11.2017 17:00:00 9,9 9,3 31 17 32 18 S 1002,3 8
21.11.2017 16:00:00 10,3 9,2 34 18 - - SSE 1003,3 8
21.11.2017 15:00:00 10,1 8,5 37 20 36 19 SSE 1003,7 10
21.11.2017 14:00:00 10,0 7,4 26 14 25 14 SSE 1004,7 10
21.11.2017 13:00:00 9,7 7,9 21 11 - - E 1005,7 10
21.11.2017 12:00:00 9,6 7,6 26 14 29 16 E 1006,6 10
21.11.2017 11:00:00 9,5 7,6 26 14 29 16 E 1007,4 10
21.11.2017 10:00:00 9,2 7,4 28 15 - - E 1007,6 10
21.11.2017 09:00:00 8,8 7,0 29 16 29 16 E 1007,5 10
21.11.2017 08:00:00 8,6 6,9 28 15 29 16 E 1007,4 10
21.11.2017 07:00:00 8,6 7,1 28 15 - - E 1007,2 10
21.11.2017 06:00:00 8,7 7,0 21 11 22 12 E 1007,8 10
21.11.2017 05:00:00 8,5 7,1 22 12 25 14 E 1007,7 10
21.11.2017 04:00:00 8,4 6,9 26 14 - - E 1007,8 10
21.11.2017 03:00:00 8,2 6,5 22 12 25 14 E 1008,3 10
21.11.2017 02:00:00 8,1 6,5 31 17 29 16 ENE 1008,3 10
21.11.2017 01:00:00 8,0 6,5 29 16 - - E 1008,3 10
21.11.2017 00:00:00 8,2 6,1 24 13 32 18 E 1008,2 10
20.11.2017 23:00:00 8,5 5,7 28 15 36 19 E 1008,3 10
20.11.2017 22:00:00 8,6 5,7 39 21 - - E 1007,2 10
20.11.2017 21:00:00 8,6 6,0 35 19 40 21 E 1007,3 10
20.11.2017 20:00:00 8,5 6,1 41 22 40 21 E 1007,5 10
20.11.2017 19:00:00 8,2 6,2 44 24 - - E 1006,9 10
20.11.2017 18:00:00 8,0 6,5 44 24 43 23 E 1006,6 10
20.11.2017 17:00:00 8,2 5,9 41 22 43 23 E 1006,7 10
20.11.2017 16:00:00 8,3 5,9 35 19 - - E 1007,0 10
20.11.2017 15:00:00 7,9 5,4 24 13 32 18 E 1007,6 10
20.11.2017 14:00:00 7,6 5,0 15 8 29 16 SE 1008,2 10
20.11.2017 13:00:00 7,1 4,5 15 8 - - - 1009,4 10
20.11.2017 12:00:00 6,8 3,6 21 11 22 12 SSE 1010,6 10
20.11.2017 11:00:00 6,6 3,5 16 9 22 12 S 1011,6 10
20.11.2017 10:00:00 6,4 3,2 15 8 - - SSW 1012,2 10
20.11.2017 09:00:00 6,2 3,3 18 10 22 12 WSW 1012,8 10
20.11.2017 08:00:00 6,1 3,4 24 13 32 18 WSW 1013,3 10
20.11.2017 07:00:00 6,4 4,0 22 12 - - W 1013,8 8
20.11.2017 06:00:00 6,9 1,3 28 15 36 19 WNW 1014,2 10
20.11.2017 05:00:00 7,8 2,4 22 12 36 19 NNW 1014,2 10
20.11.2017 04:00:00 7,5 3,3 22 12 - - NNW 1015,0 10
20.11.2017 03:00:00 7,9 1,8 29 16 36 19 NW 1015,3 10
20.11.2017 02:00:00 7,0 2,0 37 20 47 25 WNW 1015,8 10
20.11.2017 01:00:00 7,9 1,4 35 19 - - NW 1016,1 10
20.11.2017 00:00:00 7,9 1,4 37 20 40 21 NNW 1016,4 10
19.11.2017 23:00:00 8,1 1,5 37 20 40 21 NNW 1016,5 10
19.11.2017 22:00:00 8,1 1,5 41 22 - - NNW 1016,7 10
19.11.2017 21:00:00 8,2 0,7 46 25 47 25 NNW 1016,8 10
19.11.2017 20:00:00 8,3 1,6 44 24 50 27 NNW 1016,5 10
19.11.2017 19:00:00 6,8 2,0 41 22 - - NNW 1016,3 10
19.11.2017 18:00:00 8,5 0,1 52 28 54 29 NNW 1015,8 10
19.11.2017 17:00:00 8,6 1,3 55 30 58 31 NNW 1015,5 10
19.11.2017 16:00:00 8,6 2,3 59 32 - - NNW 1015,2 10
19.11.2017 15:00:00 8,4 1,9 59 32 68 37 NNW 1014,9 10
19.11.2017 14:00:00 8,6 2,0 65 35 68 37 NNW 1014,4 10
19.11.2017 13:00:00 8,0 2,7 54 29 - - NNW 1014,0 10
19.11.2017 12:00:00 8,7 3,1 68 37 68 37 NNW 1013,6 10
19.11.2017 11:00:00 8,7 2,5 70 38 72 39 NNW 1012,7 10
19.11.2017 10:00:00 8,8 2,1 70 38 - - NNW 1012,3 10
19.11.2017 09:00:00 8,8 2,4 70 38 79 43 - 1011,6 10
19.11.2017 08:00:00 8,6 1,7 70 38 76 41 NNW 1010,9 10
19.11.2017 07:00:00 8,9 3,3 74 40 - - NNW 1010,7 10
19.11.2017 06:00:00 8,4 2,6 72 39 79 43 NNW 1009,9 7
19.11.2017 05:00:00 8,2 3,3 67 36 83 45 NNW 1009,1 10
19.11.2017 04:00:00 7,9 3,5 78 42 - - NNW 1009,0 10
19.11.2017 03:00:00 8,9 2,4 67 36 90 49 NW 1008,4 10
19.11.2017 02:00:00 8,7 3,8 74 40 83 45 NNW 1009,1 10
19.11.2017 01:00:00 8,9 2,4 72 39 - - NNW 1008,8 10
19.11.2017 00:00:00 8,5 2,4 63 34 76 41 NNW 1008,7 8
18.11.2017 23:00:00 7,8 4,1 63 34 68 37 NNW 1009,6 9
18.11.2017 22:00:00 7,9 3,2 52 28 - - NW 1009,6 10
18.11.2017 21:00:00 7,5 2,7 67 36 79 43 NNW 1009,6 8
18.11.2017 20:00:00 8,0 2,8 67 36 68 37 NW 1009,9 10
18.11.2017 19:00:00 8,6 2,4 63 34 - - WNW 1010,0 10
18.11.2017 18:00:00 7,9 2,4 67 36 72 39 NW 1010,2 10
18.11.2017 17:00:00 8,2 1,5 72 39 68 37 NW 1010,2 10
18.11.2017 16:00:00 8,2 1,8 68 37 - - NW 1010,5 10
18.11.2017 15:00:00 8,1 1,7 63 34 68 37 NW 1010,3 10
18.11.2017 14:00:00 8,4 1,8 65 35 68 37 NW 1010,4 10
18.11.2017 13:00:00 4,5 1,4 65 35 - - NNW 1011,4 10
18.11.2017 12:00:00 6,3 2,8 59 32 72 39 NNW 1011,2 6
18.11.2017 11:00:00 6,3 2,0 63 34 76 41 NW 1011,3 10
18.11.2017 10:00:00 7,0 -0,1 70 38 - - NNW 1010,4 10
18.11.2017 09:00:00 6,8 1,3 63 34 68 37 NNW 1010,3 10
18.11.2017 08:00:00 8,1 2,9 68 37 72 39 NNW 1009,6 10
18.11.2017 07:00:00 7,9 3,2 57 31 - - WNW 1009,6 10
18.11.2017 06:00:00 5,3 4,2 68 37 68 37 NNW 1010,0 10
18.11.2017 05:00:00 9,3 5,1 59 32 76 41 W 1010,5 9
18.11.2017 04:00:00 9,4 4,5 67 36 - - W 1011,5 10
18.11.2017 03:00:00 9,4 4,6 67 36 68 37 W 1012,6 10
18.11.2017 02:00:00 9,5 5,4 61 33 65 35 W 1013,7 10
18.11.2017 01:00:00 9,5 5,1 63 34 - - W 1014,8 10
18.11.2017 00:00:00 9,4 4,8 59 32 61 33 W 1015,8 10
17.11.2017 23:00:00 9,5 4,7 59 32 58 31 W 1016,4 10
17.11.2017 22:00:00 9,5 5,0 55 30 - - W 1017,2 10
17.11.2017 21:00:00 9,4 5,0 54 29 58 31 WSW 1017,7 10
17.11.2017 20:00:00 9,2 4,6 57 31 58 31 WSW 1018,5 10
17.11.2017 19:00:00 9,2 4,5 52 28 - - W 1019,5 10
17.11.2017 18:00:00 9,0 4,4 55 30 54 29 W 1019,8 10
17.11.2017 17:00:00 9,0 4,5 55 30 54 29 W 1020,6 10
17.11.2017 16:00:00 8,9 4,4 54 29 - - W 1021,2 10
17.11.2017 15:00:00 9,0 3,8 52 28 54 29 W 1021,6 10
17.11.2017 14:00:00 8,9 3,6 46 25 47 25 WSW 1022,1 10
17.11.2017 13:00:00 8,8 3,7 42 23 - - W 1022,6 10
17.11.2017 12:00:00 8,7 2,9 46 25 43 23 WSW 1023,3 10

tt = Température de l'air
td = dewpoint
ff = Vitesse du vent
fx = gusts
dd = Direction du vent
ppp = reduced air pressure
vv = visibility

stations d'obs. à proximité